#timestamp,LO_Frequency,Hit 
1505487615.1,286046977.3,N
1505487616.0,286046977.3,N
1505487635.8,286046978.7,N
1505487655.7,286046976.2,N
1505487675.5,286046976.4,N
1505487695.3,286046983.2,N
1505487715.2,286046981.4,N
1505487735.0,286046981.3,N
1505487735.9,286046981.3,N
1505487755.8,286046982.8,N
1505487775.6,286046985.0,N
1505487795.4,286046983.0,N
1505487815.3,286046982.0,N
1505487835.1,286046979.7,N
1505487855.8,286046978.8,N
1505487875.7,286046974.2,P
1505487895.5,286046987.1,N
1505487915.4,286046988.2,N
1505487935.2,286046986.5,N
1505487955.0,286046986.7,N
1505487955.9,286046986.7,N
1505487975.8,286046982.6,P
1505487995.6,286046996.0,P
1505488015.5,286046993.4,N
1505488035.3,286046993.7,N
1505488055.1,286046994.1,N
1505488075.9,286046991.9,N
1505488095.7,286046992.8,N
1505488115.6,286046989.8,N
1505488135.4,286046989.6,N
1505488155.2,286046987.4,P
1505488175.1,286046997.4,N
1505488176.0,286046997.4,N
1505488195.8,286046997.4,N
1505488215.7,286046996.0,N
1505488235.5,286046993.6,N
1505488255.3,286046993.6,N
1505488275.2,286046994.7,N
1505488295.0,286046994.8,P
1505488295.9,286046994.8,P
1505488315.8,286046998.7,P
1505488335.6,286046998.6,N
1505488355.4,286046998.3,N
1505488375.3,286047000.7,N
1505488395.1,286046998.6,N
1505488415.8,286046999.2,N
1505488435.7,286046997.7,N
1505488455.5,286046995.0,N
1505488475.4,286046996.1,N
1505488495.2,286046996.3,N
1505488515.0,286046992.2,P
1505488515.9,286046992.2,P
1505488535.8,286046995.5,N
1505488555.6,286046994.3,N
1505488575.5,286046992.2,P
1505488595.3,286047001.0,N
1505488615.1,286046999.4,N
1505488635.9,286046998.6,N
1505488655.7,286046999.0,N
1505488675.6,286046998.7,N
1505488695.4,286047001.1,N
1505488715.2,286047000.4,N
1505488735.1,286047000.6,N
1505488736.0,286047000.6,N
1505488755.8,286046998.5,N
1505488775.7,286046999.3,N
1505488795.5,286046999.4,N
1505488815.3,286046998.3,N
1505488835.2,286046999.0,N
1505488855.0,286046999.3,N
1505488855.9,286046999.3,N
1505488875.8,286046999.4,N
1505488895.6,286046998.4,N
1505488915.4,286046996.9,N
1505488935.3,286046999.1,N
1505488955.1,286046999.2,N
1505488975.8,286046999.5,N
1505488995.7,286047006.4,P
1505489015.5,286047005.6,N
1505489035.4,286047003.9,N
1505489055.2,286046999.8,N
1505489075.0,286047001.9,N
1505489075.9,286047001.9,N
1505489095.8,286047002.0,N
1505489115.6,286047000.0,N
1505489135.5,286046999.8,N
1505489155.3,286047003.9,N
1505489175.1,286047002.5,N
1505489195.9,286047000.0,N
1505489215.7,286047000.2,N
1505489235.5,286046998.2,N
1505489255.4,286046998.5,N
1505489275.2,286047000.7,N
1505489295.1,286046998.2,N
1505489296.0,286046998.2,N
1505489315.8,286046998.4,N
1505489335.6,286047001.0,N
1505489355.5,286047000.7,N
1505489375.3,286047001.1,N
1505489395.2,286046998.1,N
1505489415.9,286046998.6,N
1505489435.7,286046998.8,N
1505489455.6,286046998.2,N
1505489475.4,286046998.9,N
1505489495.2,286046999.5,N
1505489515.1,286046997.0,N
1505489516.0,286046997.0,N
1505489535.8,286046996.7,N
1505489555.7,286046999.4,N
1505489575.5,286046996.9,N
1505489595.3,286046996.6,N
1505489615.2,286046996.8,N
1505489635.0,286046996.8,N
1505489635.9,286046996.8,N
1505489655.8,286046997.7,N
1505489675.6,286046997.7,N
1505489695.4,286046997.4,N
1505489715.3,286046997.8,N
1505489735.1,286046996.8,N
1505489755.8,286046996.6,N
1505489775.7,286046998.3,N
1505489795.5,286046998.7,N
1505489815.4,286046998.1,N
1505489835.2,286046998.3,N
1505489855.0,286046999.2,N
1505489855.9,286046999.2,N
1505489875.8,286046996.7,N
1505489895.6,286046997.2,N
1505489915.5,286046996.1,P
1505489935.3,286046999.4,N
1505489955.1,286046999.5,N
1505489975.9,286046998.7,N
1505489995.7,286047001.2,N
1505490015.6,286046998.6,N
1505490035.4,286046999.5,N
1505490055.2,286046998.9,N
1505490075.1,286046999.2,N
1505490076.0,286046999.2,N
1505490095.8,286046999.3,N
1505490115.6,286046999.2,N
1505490135.5,286046999.2,N
1505490155.3,286046998.8,N
1505490175.2,286046998.2,N
1505490195.9,286046999.3,N
1505490215.7,286046998.9,N
1505490235.6,286046998.8,N
1505490255.4,286046998.9,N
1505490275.2,286046999.3,N
1505490295.1,286046998.2,N
1505490296.0,286046998.2,N
1505490315.8,286047000.7,N
1505490335.7,286047001.0,N
1505490355.5,286047001.0,N
1505490375.3,286047000.8,N
1505490395.2,286047000.3,N
1505490415.0,286047002.6,N
1505490415.9,286047002.6,N
1505490435.8,286047004.1,P
1505490455.6,286047003.7,N
1505490475.4,286047004.0,N
1505490495.3,286047003.8,N
1505490515.1,286047001.9,N
1505490535.8,286047001.9,N
1505490555.7,286047001.9,N
1505490575.5,286047001.9,N
1505490595.4,286047002.8,N
1505490615.2,286047002.3,N
1505490635.0,286046999.8,N
1505490635.9,286046999.8,N
1505490655.8,286047000.2,N
1505490675.6,286047000.3,N
1505490695.5,286046998.6,N
1505490715.3,286046998.2,N
1505490735.1,286046999.6,N
1505490755.9,286046998.9,N
1505490775.7,286046999.3,N
1505490795.5,286046997.0,N
1505490815.4,286046998.8,N
1505490835.2,286046998.4,N
1505490855.1,286046998.2,N
1505490856.0,286046998.2,N
1505490875.8,286046999.4,N
1505490895.6,286046999.4,N
1505490915.5,286046997.1,N
1505490935.3,286046999.4,N
1505490955.2,286046999.2,N
1505490975.9,286046999.4,N
1505490995.7,286046998.3,N
1505491015.6,286046999.0,N
1505491035.4,286046996.9,N
1505491055.2,286046999.6,N
1505491075.1,286046999.2,N
1505491076.0,286046999.2,N
1505491095.8,286046996.9,N
1505491115.7,286046997.2,N
1505491135.5,286046998.0,N
1505491155.3,286046997.8,N
1505491175.2,286046998.0,N
1505491195.0,286046999.4,N
1505491195.9,286046999.4,N
